User: anonymous   Login
Location: Podia
(1.5569°N, 32.3469°E)
Time: 02:05:44
(UTC+00:00)
Language:

A-11 Canister half - Orbit

View from above orbital plane
View from above orbital plane
View from above satellite
View from above satellite

Ground track
Ground track

The orbit data is extracted from the following two-line orbital elements,

1    53U 60009E   20264.57559287 -.00000011 +00000-0 +72545-3 0  9994
2    53 047.2783 325.6532 0097275 001.5933 358.5151 12.17243631680156
Epoch (UTC): 20 September 2020 13:48:51
Eccentricity: 0.0097275
inclination: 47.2783°
perigee height: 1527 km
apogee height: 1682 km
right ascension of ascending node: 325.6532°
argument of perigee: 1.5933°
revolutions per day: 12.17243631
mean anomaly at epoch: 358.5151°
orbit number at epoch: 68015

The dashed part of the orbit path shows where the satellite is in the earth's shadow,  

DLR